Powrót do katalogu

SL-14 DEB

AktywnyPO
NORAD 45653·DEBRIS·🇷🇺 Russia

Wystrzelony Aug 15, 1991 z Plesetsk Cosmodrome

Loading…

Następne Przeloty (najbliższe 24 godziny)

TLE

ŚwieżeSource: Space-Track

Epoka: Sep 13, 2026, 19:43 UTC

1 45653U 91056CX  26256.82188741  .00000702  00000-0  13254-2 0  9990
2 45653  82.5573  29.5197 0066633  57.0200 303.7314 13.36234862315587

Śledź SL-14 DEB w czasie rzeczywistym z AllMySat

Download on the App Store